sat.trackr.live / text

‹ back to catalog

STARLINK-34269

NORAD 64386 · 2025-127S

PAYLOAD ACTIVE UNKNOWN

§ Identity

Operator
Country
US
Launch date
2025-06-13
Launch site
AFETR
Launch vehicle
Mass (kg)
RCS (m²)

Purposes: comms

External: N2YO · Heavens-Above · Gunter

§ Orbital elements

Epoch: 2026-05-24T22:45:26.371296Z

Period
94.27 min
Inclination
42.9998°
Eccentricity
0.0000720
Mean motion
15.27589461 rev/d
Perigee alt
482.5 km
Apogee alt
483.5 km
Semi-major
6,861.2 km
B*
4.7439e-4
RAAN
108.7808°
Arg perigee
254.1133°
Mean anomaly
105.9639°
Rev number
5,413

§ Raw data

STARLINK-342691 64386U 25127S   26144.94822189  .00012819  00000+0  47439-3 0  99942 64386  42.9998 108.7808 0000720 254.1133 105.9639 15.27589461 54134

JSON: /api/v1/satellites/64386 · /tle

For live sub-satellite position, see the globe view (requires WebGL).

§ Visibility from observer

Set your observer location to see the next 7 days of passes ≥ 10°. The values pass through the URL so the page stays shareable.

No JS? Fill the form by hand. The geolocation button needs JavaScript.